Hourly Data Report for August 05, 2022

ST-JOVITE
QUEBEC
Current Station Operator: ECCC - MSC

46°04'49.000" N
74°33'21.000" W
238.50 m
703GDKB
71376
WJT

Download Data

Hourly Data (August 2022)
Hourly Data Report for August 5, 2022
TIME
LST
Temp Definition
°C
Dew Point Definition
°C
Rel Hum Definition
%
Precip. Amount Definition
mm

Wind Dir Definition
10's deg

Wind Spd Definition
km/h
Visibility Definition
km
Stn Press Definition
kPa
Hmdx Definition


Wind Chill Definition


Weather Definition


00:00 19.5 LegendMM LegendMM 0.0   0   98.86     LegendNANA
01:00 18.8 LegendMM LegendMM 0.0 0 1   98.90     LegendNANA
02:00 18.5 LegendMM LegendMM 0.0   0   98.94     LegendNANA
03:00 18.6 LegendMM LegendMM 0.0   0   98.98     LegendNANA
04:00 17.5 LegendMM LegendMM 0.0   0   99.04     LegendNANA
05:00 16.6 LegendMM LegendMM 0.0   0   99.12     LegendNANA
06:00 16.2 LegendMM LegendMM 0.0 0 1   99.19     LegendNANA
07:00 16.9 LegendMM LegendMM 0.0 8 3   99.26     LegendNANA
08:00 17.9 LegendMM LegendMM 0.0 1 2   99.32     LegendNANA
09:00 18.7 18.7 100 0.0 3 2   99.35     LegendNANA
10:00 21.1 18.1 83 0.0 7 4   99.36 27   LegendNANA
11:00 23.1 18.2 74 0.0 26 1   99.36 29   LegendNANA
12:00 24.9 14.0 51 0.0 22 4   99.38 28   LegendNANA
13:00 26.0 16.4 56 1.0 23 5   99.38 31   LegendNANA
14:00 26.2 14.4 48 0.0 27 4   99.37 30   LegendNANA
15:00 25.7 13.8 48 0.0 27 4   99.35 29   LegendNANA
16:00 24.4 14.7 54 0.0 27 1   99.37 28   LegendNANA
17:00 23.7 14.3 56 0.0 25 3   99.35 27   LegendNANA
18:00 21.7 16.4 72 0.0 0 1   99.31 27   LegendNANA
19:00 19.7 17.6 88 0.0 0 1   99.34     LegendNANA
20:00 18.2 17.1 93 0.0 6 2   99.41     LegendNANA
21:00 17.2 16.5 96 0.0 6 3   99.42     LegendNANA
22:00 16.2 15.7 97 0.0 5 2   99.44     LegendNANA
23:00 15.0 15.0 100 0.0 0 1   99.43     LegendNANA

Notes on Data Quality.

Legend

  • E = Estimated
  • M = Missing
  • NA = Not Available*
  • [empty] = Indicates an unobserved value
Date modified: